SCP
-0 -0 -0 0 0 0 0 0 0 0 0 0 -0 -0 0 0 0 0 0 0 0 0 0 0 0 0 0 0 0 0 0 0 -0 -0 0 0 -0 -0 -0 -0 -0 -0 0
-0 -0 0 0 0 0 0 0 0 0 0 0 0 -0 -0 0 0 0 0 0 -0 0 0 0 0 0 0 0 0 0 0 0 0 -0 -0 -0 -0 -0 0 0 0 0 -0
-0 -0 0 0 0 0 0 0 0 0 0 0 0 0 0 0 0 0 0 0 -0 0 -0 -0 0 0 0 0 0 0 0 0 -0 -0 0 -0 -0 0 -0 -0 -0 0 -0
0 -0 -0 -0 -0 -0 -0 0 0 0 0 0 0 0 0 0 0 -0 0 0 -0 -0 -0 0 -0 0 0 0 0 0 0 0 0 -0 0 0 0 0 -0 0 0 0 -0
-0 -0 0 -0 -0 -0 -0 -0 -0 -0 0 0 0 0 0 0 -0 0 0 -0 0 -0 -0 0 0 0 0 0 0 0 0 0 0 -0 -0 0 0 0 0 0 0 -0 -0
-0 -0 -0 -0 -0 -0 -0 0 -0 0 0 0 0 0 0 0 0 0 0 0 0 0 -0 0 0 0 0 0 0 0 0 0 0 0 0 0 0 0 0 0 0 0 0
0 0 -0 -0 -0 -0 -0 -0 -0 0 0 0 0 0 0 0 0 0 0 0 0 0 -0 0 0 0 0 0 0 0 0 0 0 0 0 0 0 -0 0 0 0 0 0
-0 0 -0 -0 -0 -0 -0 -0 -0 0 0 0 0 0 0 0 0 -0 0 0 0 0 0 0 0 0 0 0 0 0 0 0 0 0 0 0 0 0 0 0 0 0 0
-0 0 -0 -0 -0 -0 -0 -0 -0 0 0 0 0 0 -0 -0 -0 -0 0 0 0 0 0 0 0 0 0 0 0 0 0 0 0 0 0 0 0 0 0 0 0 0 0
0 -0 -0 -0 -0 -0 -0 -0 0 0 0 0 -0 -0 0 0 0 0 0 0 0 0 0 0 0 0 0 0 0 1 0 0 0 0 0 0 0 0 0 0 0 0 0
-0 -0 -0 -0 -0 -0 -0 -0 0 0 -0 0 0 0 0 0 0 0 0 0 0 0 0 0 0 0 0 0 1 1 0 0 0 0 0 0 0 0 0 0 0 0 0
0 -0 -0 -0 -0 -0 -0 -0 -0 0 0 0 0 0 0 0 0 0 0 0 0 0 0 0 0 0 0 0 0 0 1 0 0 0 0 0 0 0 0 0 0 0 0
-0 -0 -0 -0 -0 -0 -0 -0 0 0 0 0 0 0 0 0 0 0 0 0 0 0 0 0 0 0 0 0 0 0 0 0 0 0 0 0 0 0 0 0 0 0 0
-0 -0 -0 -0 -0 -0 -0 -0 0 -0 0 0 0 0 0 0 0 0 0 0 0 0 0 0 0 0 0 0 0 0 0 0 0 0 0 0 0 0 0 0 0 0 0
-0 -0 -0 -0 -0 0 -0 -0 0 0 0 0 0 0 0 0 0 0 0 0 0 0 0 0 0 0 0 0 0 0 0 0 0 0 0 0 0 0 0 0 0 0 0
-0 -0 -0 -0 0 0 0 0 0 0 0 0 0 0 0 0 0 0 0 0 0 0 0 0 0 0 0 0 0 0 0 0 0 0 0 0 0 0 0 0 0 -0 -0
-0 -0 0 0 0 -0 0 0 -0 0 0 0 0 0 0 0 0 0 0 0 0 0 0 0 0 0 0 0 0 0 0 0 0 0 0 0 0 0 -0 -0 -0 -0 -0
-0 0 0 -0 -0 0 0 0 -0 0 -0 0 0 0 0 0 0 0 0 0 0 0 0 0 0 0 0 0 0 0 0 0 0 0 0 0 0 0 0 -0 -0 -0 -0
0 0 0 0 -0 -0 -0 -0 0 0 -0 0 0 0 0 0 0 -0 0 0 0 0 0 0 0 0 0 0 0 0 0 0 0 0 0 0 0 0 0 -0 -0 -0 -0
-0 0 0 0 -0 -0 -0 -0 -0 -0 -0 -0 0 0 -0 0 0 0 -0 -0 0 0 0 0 0 0 0 0 0 0 0 0 0 0 0 0 0 0 0 -0 -0 0 -0
-0 0 0 -0 -0 -0 0 -0 -0 0 -0 -0 -0 0 0 -0 0 0 -0 0 0 0 0 0 0 0 0 0 0 0 0 0 0 0 0 0 0 0 0 -0 -0 0 0
-0 -0 -0 -0 -0 -0 -0 0 0 -0 -0 0 0 0 -0 0 0 0 -0 -0 -0 0 0 0 0 0 0 0 0 0 0 0 0 0 0 0 -0 -0 0 0 -0 0 0
-0 -0 -0 -0 -0 -0 -0 -0 0 0 0 -0 0 -0 0 -0 -0 0 -0 -0 -0 0 0 0 0 0 0 0 0 0 0 0 0 0 0 0 -0 -0 0 -0 0 0 0
-0 -0 -0 0 0 -0 -0 -0 -0 -0 -0 -0 -0 -0 -0 0 -0 -0 -0 -0 0 0 0 0 0 0 0 0 0 0 0 0 0 0 0 0 0 -0 0 -0 0 -0 0
-0 -0 -0 0 0 0 -0 -0 -0 -0 -0 -0 -0 -0 -0 -0 -0 0 -0 -0 -0 0 0 0 0 0 0 0 0 0 0 0 0 0 0 0 0 -0 0 -0 0 0 0
0 0 0 0 0 0 -0 0 -0 -0 -0 -0 -0 -0 -0 -0 -0 0 -0 -0 -0 -0 0 0 0 0 0 0 0 0 0 -0 0 0 0 0 0 0 0 0 -0 -0 -0
Wind_Speed_500mb
41 37 34 35 35 35 34 33 33 35 37 40 42 44 41 44 48 51 49 47 44 43 40 37 36 36 38 39 40 40 40 38 36 38 39 37 38 36 34 34 33 33 31
44 40 37 36 35 34 34 35 35 36 39 37 41 41 47 50 50 47 46 44 43 43 41 38 40 41 42 42 44 45 42 39 37 36 38 36 36 33 33 33 32 31 30
49 45 40 36 34 33 34 35 36 36 37 37 43 47 44 45 45 44 41 40 38 39 37 41 41 42 42 41 38 38 42 41 36 34 35 34 34 33 33 33 33 32 32
46 43 38 35 35 33 33 33 34 37 37 44 43 41 41 42 43 42 41 37 36 38 39 42 41 41 46 43 37 33 37 37 33 32 34 37 36 34 33 34 29 30 30
43 38 36 33 33 31 33 36 36 37 39 40 41 40 39 40 41 39 37 36 38 38 38 38 37 39 42 45 40 33 31 29 29 32 35 35 36 31 29 28 27 26 25
38 35 35 33 33 33 33 34 35 38 39 40 40 41 39 36 35 36 34 34 34 38 36 37 37 40 36 36 33 34 30 21 23 25 27 29 32 28 25 25 26 23 24
39 35 33 33 32 33 36 34 35 39 41 40 39 39 35 33 31 31 31 33 34 37 35 35 39 36 32 31 34 30 29 20 20 24 26 27 28 28 23 26 22 17 19
36 37 36 35 33 34 35 36 36 39 38 39 39 37 35 32 32 32 34 35 36 36 35 37 39 38 34 30 30 33 29 19 16 17 19 23 25 23 20 19 16 17 17
34 32 33 35 35 34 35 36 36 38 38 37 36 36 34 31 32 36 37 37 37 38 38 37 40 38 30 23 22 24 27 23 15 15 18 20 22 23 20 20 19 20 21
35 30 32 32 32 34 36 36 36 35 34 37 37 35 32 33 35 38 37 37 39 42 43 39 41 36 29 22 16 13 20 26 15 13 16 18 20 22 21 20 23 24 23
37 33 32 31 32 32 36 36 37 34 36 34 34 34 34 39 34 36 37 43 44 44 48 47 45 37 28 22 13 9 12 21 18 12 13 17 20 22 23 23 24 24 24
38 35 27 32 35 35 37 37 35 35 34 36 35 37 38 39 36 35 39 39 38 36 35 37 36 31 27 23 16 10 7 16 15 11 13 17 20 22 23 24 24 24 24
35 39 37 38 34 33 36 37 36 34 36 38 38 34 33 40 42 34 28 23 20 21 21 18 20 21 21 22 17 12 5 12 17 11 13 18 20 23 23 23 24 25 25
43 42 37 38 38 29 31 33 28 31 34 36 36 32 32 38 34 25 21 21 17 17 21 35 26 18 12 12 14 9 3 6 18 12 15 19 21 22 23 24 25 25 26
44 39 38 33 29 28 33 33 21 24 37 40 40 41 37 31 22 14 13 26 25 24 19 22 23 17 18 14 16 10 4 6 17 17 19 22 22 21 21 23 24 27 28
46 41 40 30 25 31 27 27 31 43 41 36 41 32 27 24 22 20 23 24 20 25 18 8 9 7 12 12 6 8 9 8 19 25 22 22 22 20 20 22 24 24 25
47 43 41 28 29 36 26 35 42 32 37 34 36 32 27 24 16 21 21 20 18 13 16 15 6 3 17 11 12 9 6 10 11 19 22 22 19 19 20 20 20 20 21
43 43 40 31 38 33 32 32 36 39 30 31 30 29 27 26 16 13 12 19 18 15 4 3 1 13 17 22 10 12 7 10 9 10 9 10 15 14 18 20 18 18 21
38 47 45 42 40 40 43 29 28 30 28 22 18 19 20 23 21 21 18 12 8 2 10 13 20 10 12 12 12 7 11 9 6 6 6 7 12 11 6 9 12 12 14
45 42 38 43 41 41 39 38 36 31 27 20 16 13 29 26 19 19 18 8 5 8 11 13 15 11 11 8 6 8 4 4 2 7 10 10 9 10 11 10 17 15 11
54 45 34 39 52 44 40 39 38 38 32 27 20 16 34 26 16 14 13 12 16 17 12 13 16 19 24 8 13 12 11 6 6 7 2 5 8 10 14 16 17 18 17
54 50 37 38 37 41 45 38 36 31 28 25 22 20 33 29 17 15 15 20 16 16 12 11 15 17 12 9 12 10 8 12 11 19 15 18 17 15 25 27 26 23 18
56 54 39 35 45 46 41 36 34 33 31 28 24 27 25 31 17 12 12 19 28 15 17 10 12 12 14 13 7 4 4 5 9 12 20 13 14 20 15 19 27 24 24
52 56 40 40 46 39 42 37 36 38 32 26 21 25 26 24 25 13 13 16 27 24 16 11 10 10 7 3 12 2 10 10 4 7 8 11 9 16 15 18 26 15 12
54 59 48 48 42 43 40 36 34 31 27 25 22 23 26 21 19 11 11 14 18 22 15 14 9 8 7 11 6 1 10 1 5 13 7 17 10 20 18 16 16 11 10
51 57 52 52 40 49 39 38 40 38 30 27 26 28 21 17 24 20 12 14 17 22 20 21 10 7 8 16 15 18 4 7 2 13 12 11 20 12 18 12 15 17 10
Wind_Direction_500mb
147 139 133 125 119 116 114 111 112 111 111 112 113 116 116 115 117 119 115 114 113 112 113 113 114 115 112 109 107 108 111 115 115 112 109 107 106 100 104 103 103 103 106
143 140 135 128 124 120 119 119 117 116 115 114 118 118 116 113 115 117 113 111 110 112 113 113 113 115 116 112 110 106 105 107 115 108 110 104 102 107 104 103 101 100 103
144 141 137 132 129 127 124 124 121 119 117 116 119 118 115 116 116 116 114 112 111 111 113 111 115 115 115 111 105 104 105 105 107 111 108 107 106 105 106 107 110 106 105
142 140 141 142 139 136 132 124 122 121 118 117 117 117 117 117 116 115 117 118 117 114 117 119 115 111 108 108 107 108 105 103 103 108 110 110 109 109 108 104 103 102 103
137 138 139 140 140 136 136 131 130 127 123 124 122 120 119 118 112 113 115 115 114 116 117 125 123 113 111 107 102 109 103 95 103 115 111 108 107 106 106 105 107 108 109
140 144 142 143 144 143 139 133 136 133 128 127 125 123 122 120 119 114 111 109 111 114 116 125 122 114 106 110 115 97 95 104 117 115 114 112 106 106 110 107 103 104 107
140 143 142 144 141 141 139 140 137 133 130 126 126 121 119 119 115 116 111 110 106 111 121 129 124 112 109 102 106 94 90 95 113 115 112 112 116 111 111 114 117 111 110
142 142 139 143 140 138 138 138 137 139 133 129 125 122 116 116 114 108 107 105 105 108 115 130 126 121 118 106 94 82 72 87 108 108 109 112 119 125 121 124 123 109 109
133 134 133 137 136 138 141 137 136 139 135 133 129 126 116 114 111 105 102 103 106 110 115 128 133 130 124 108 90 79 74 73 88 101 107 111 118 118 113 110 107 102 97
124 127 130 131 134 137 139 138 135 136 138 133 131 121 118 115 111 105 107 109 109 111 117 128 142 135 129 126 114 84 60 55 70 91 108 112 108 106 107 105 101 99 98
125 122 124 126 131 137 140 138 137 139 140 140 133 127 120 113 108 107 111 108 106 113 118 119 128 133 128 125 120 82 53 40 51 75 99 105 106 106 107 106 105 103 96
139 127 115 128 131 141 141 142 151 145 144 145 138 126 120 117 113 110 117 113 110 111 116 124 130 133 131 127 135 155 78 46 51 64 94 103 107 109 110 107 102 96 92
139 132 123 121 127 138 144 151 150 150 142 139 134 129 127 126 122 117 119 118 115 114 115 130 133 137 131 136 146 180 116 46 42 67 97 106 110 109 107 103 99 95 89
136 127 135 129 128 131 139 137 146 153 153 147 137 140 136 130 136 130 126 129 142 114 108 108 103 115 112 116 155 188 156 37 37 76 99 105 108 107 106 103 98 92 86
144 135 138 142 148 133 137 147 158 154 151 148 139 135 131 127 137 140 119 121 119 114 135 121 109 98 79 113 103 104 128 52 48 86 100 106 105 102 101 98 95 90 83
138 134 142 152 164 169 142 132 127 133 134 147 150 151 142 138 143 114 119 113 110 121 137 150 118 77 108 81 50 84 61 93 77 87 96 100 99 97 97 96 91 83 73
146 148 155 160 171 164 151 135 135 128 133 143 146 142 146 145 142 139 123 116 142 136 137 154 163 204 150 143 130 92 207 102 109 92 88 82 88 96 97 90 81 72 61
149 160 162 159 148 156 156 141 143 132 129 134 145 151 141 149 141 151 150 131 127 108 95 175 137 135 135 168 155 131 97 172 127 115 109 91 74 83 91 77 63 54 44
156 167 169 177 157 148 150 154 148 140 136 135 138 152 164 161 172 155 164 160 144 132 122 94 74 148 174 126 166 134 109 111 119 125 111 104 94 90 62 8 18 14 13
156 150 171 185 178 166 164 158 159 153 143 132 112 167 184 188 183 170 174 189 195 212 159 110 88 95 151 183 188 190 182 105 47 86 103 91 95 71 36 11 3 357 344
155 154 154 156 172 173 169 164 164 169 163 156 152 160 177 187 172 165 167 179 192 185 165 107 100 118 128 104 196 188 218 218 228 231 235 357 357 349 344 335 340 352 354
167 167 164 173 178 185 175 171 177 172 174 171 167 172 190 184 189 162 168 181 192 175 160 120 94 126 149 93 155 174 194 225 235 273 272 279 268 278 286 285 288 284 309
175 176 167 179 171 178 179 180 175 176 171 177 175 169 174 194 200 172 168 199 192 184 155 123 98 121 126 133 96 137 240 236 253 259 263 259 245 259 293 297 286 284 287
180 173 176 178 182 186 185 189 192 191 188 175 173 177 179 198 210 196 184 187 177 184 145 154 100 84 143 159 219 272 150 57 101 157 195 202 266 270 300 322 340 341 282
180 180 183 192 196 195 192 199 204 210 187 181 186 177 185 182 193 215 202 185 184 171 170 175 108 60 91 95 148 334 228 8 82 43 302 222 264 334 313 305 335 20 339
184 189 190 194 203 202 195 195 200 210 206 199 192 199 193 197 187 211 207 186 193 187 187 200 184 112 55 144 87 63 37 234 172 339 11 342 234 14 8 317 315 338 344
Wind_Speed_850mb
41 37 34 35 35 35 34 33 33 35 37 40 42 44 41 44 48 51 49 47 44 43 40 37 36 36 38 39 40 40 40 38 36 38 39 37 38 36 34 34 33 33 31
44 40 37 36 35 34 34 35 35 36 39 37 41 41 47 50 50 47 46 44 43 43 41 38 40 41 42 42 44 45 42 39 37 36 38 36 36 33 33 33 32 31 30
49 45 40 36 34 33 34 35 36 36 37 37 43 47 44 45 45 44 41 40 38 39 37 41 41 42 42 41 38 38 42 41 36 34 35 34 34 33 33 33 33 32 32
46 43 38 35 35 33 33 33 34 37 37 44 43 41 41 42 43 42 41 37 36 38 39 42 41 41 46 43 37 33 37 37 33 32 34 37 36 34 33 34 29 30 30
43 38 36 33 33 31 33 36 36 37 39 40 41 40 39 40 41 39 37 36 38 38 38 38 37 39 42 45 40 33 31 29 29 32 35 35 36 31 29 28 27 26 25
38 35 35 33 33 33 33 34 35 38 39 40 40 41 39 36 35 36 34 34 34 38 36 37 37 40 36 36 33 34 30 21 23 25 27 29 32 28 25 25 26 23 24
39 35 33 33 32 33 36 34 35 39 41 40 39 39 35 33 31 31 31 33 34 37 35 35 39 36 32 31 34 30 29 20 20 24 26 27 28 28 23 26 22 17 19
36 37 36 35 33 34 35 36 36 39 38 39 39 37 35 32 32 32 34 35 36 36 35 37 39 38 34 30 30 33 29 19 16 17 19 23 25 23 20 19 16 17 17
34 32 33 35 35 34 35 36 36 38 38 37 36 36 34 31 32 36 37 37 37 38 38 37 40 38 30 23 22 24 27 23 15 15 18 20 22 23 20 20 19 20 21
35 30 32 32 32 34 36 36 36 35 34 37 37 35 32 33 35 38 37 37 39 42 43 39 41 36 29 22 16 13 20 26 15 13 16 18 20 22 21 20 23 24 23
37 33 32 31 32 32 36 36 37 34 36 34 34 34 34 39 34 36 37 43 44 44 48 47 45 37 28 22 13 9 12 21 18 12 13 17 20 22 23 23 24 24 24
38 35 27 32 35 35 37 37 35 35 34 36 35 37 38 39 36 35 39 39 38 36 35 37 36 31 27 23 16 10 7 16 15 11 13 17 20 22 23 24 24 24 24
35 39 37 38 34 33 36 37 36 34 36 38 38 34 33 40 42 34 28 23 20 21 21 18 20 21 21 22 17 12 5 12 17 11 13 18 20 23 23 23 24 25 25
43 42 37 38 38 29 31 33 28 31 34 36 36 32 32 38 34 25 21 21 17 17 21 35 26 18 12 12 14 9 3 6 18 12 15 19 21 22 23 24 25 25 26
44 39 38 33 29 28 33 33 21 24 37 40 40 41 37 31 22 14 13 26 25 24 19 22 23 17 18 14 16 10 4 6 17 17 19 22 22 21 21 23 24 27 28
46 41 40 30 25 31 27 27 31 43 41 36 41 32 27 24 22 20 23 24 20 25 18 8 9 7 12 12 6 8 9 8 19 25 22 22 22 20 20 22 24 24 25
47 43 41 28 29 36 26 35 42 32 37 34 36 32 27 24 16 21 21 20 18 13 16 15 6 3 17 11 12 9 6 10 11 19 22 22 19 19 20 20 20 20 21
43 43 40 31 38 33 32 32 36 39 30 31 30 29 27 26 16 13 12 19 18 15 4 3 1 13 17 22 10 12 7 10 9 10 9 10 15 14 18 20 18 18 21
38 47 45 42 40 40 43 29 28 30 28 22 18 19 20 23 21 21 18 12 8 2 10 13 20 10 12 12 12 7 11 9 6 6 6 7 12 11 6 9 12 12 14
45 42 38 43 41 41 39 38 36 31 27 20 16 13 29 26 19 19 18 8 5 8 11 13 15 11 11 8 6 8 4 4 2 7 10 10 9 10 11 10 17 15 11
54 45 34 39 52 44 40 39 38 38 32 27 20 16 34 26 16 14 13 12 16 17 12 13 16 19 24 8 13 12 11 6 6 7 2 5 8 10 14 16 17 18 17
54 50 37 38 37 41 45 38 36 31 28 25 22 20 33 29 17 15 15 20 16 16 12 11 15 17 12 9 12 10 8 12 11 19 15 18 17 15 25 27 26 23 18
56 54 39 35 45 46 41 36 34 33 31 28 24 27 25 31 17 12 12 19 28 15 17 10 12 12 14 13 7 4 4 5 9 12 20 13 14 20 15 19 27 24 24
52 56 40 40 46 39 42 37 36 38 32 26 21 25 26 24 25 13 13 16 27 24 16 11 10 10 7 3 12 2 10 10 4 7 8 11 9 16 15 18 26 15 12
54 59 48 48 42 43 40 36 34 31 27 25 22 23 26 21 19 11 11 14 18 22 15 14 9 8 7 11 6 1 10 1 5 13 7 17 10 20 18 16 16 11 10
51 57 52 52 40 49 39 38 40 38 30 27 26 28 21 17 24 20 12 14 17 22 20 21 10 7 8 16 15 18 4 7 2 13 12 11 20 12 18 12 15 17 10
Wind_Direction_850mb
147 139 133 125 119 116 114 111 112 111 111 112 113 116 116 115 117 119 115 114 113 112 113 113 114 115 112 109 107 108 111 115 115 112 109 107 106 100 104 103 103 103 106
143 140 135 128 124 120 119 119 117 116 115 114 118 118 116 113 115 117 113 111 110 112 113 113 113 115 116 112 110 106 105 107 115 108 110 104 102 107 104 103 101 100 103
144 141 137 132 129 127 124 124 121 119 117 116 119 118 115 116 116 116 114 112 111 111 113 111 115 115 115 111 105 104 105 105 107 111 108 107 106 105 106 107 110 106 105
142 140 141 142 139 136 132 124 122 121 118 117 117 117 117 117 116 115 117 118 117 114 117 119 115 111 108 108 107 108 105 103 103 108 110 110 109 109 108 104 103 102 103
137 138 139 140 140 136 136 131 130 127 123 124 122 120 119 118 112 113 115 115 114 116 117 125 123 113 111 107 102 109 103 95 103 115 111 108 107 106 106 105 107 108 109
140 144 142 143 144 143 139 133 136 133 128 127 125 123 122 120 119 114 111 109 111 114 116 125 122 114 106 110 115 97 95 104 117 115 114 112 106 106 110 107 103 104 107
140 143 142 144 141 141 139 140 137 133 130 126 126 121 119 119 115 116 111 110 106 111 121 129 124 112 109 102 106 94 90 95 113 115 112 112 116 111 111 114 117 111 110
142 142 139 143 140 138 138 138 137 139 133 129 125 122 116 116 114 108 107 105 105 108 115 130 126 121 118 106 94 82 72 87 108 108 109 112 119 125 121 124 123 109 109
133 134 133 137 136 138 141 137 136 139 135 133 129 126 116 114 111 105 102 103 106 110 115 128 133 130 124 108 90 79 74 73 88 101 107 111 118 118 113 110 107 102 97
124 127 130 131 134 137 139 138 135 136 138 133 131 121 118 115 111 105 107 109 109 111 117 128 142 135 129 126 114 84 60 55 70 91 108 112 108 106 107 105 101 99 98
125 122 124 126 131 137 140 138 137 139 140 140 133 127 120 113 108 107 111 108 106 113 118 119 128 133 128 125 120 82 53 40 51 75 99 105 106 106 107 106 105 103 96
139 127 115 128 131 141 141 142 151 145 144 145 138 126 120 117 113 110 117 113 110 111 116 124 130 133 131 127 135 155 78 46 51 64 94 103 107 109 110 107 102 96 92
139 132 123 121 127 138 144 151 150 150 142 139 134 129 127 126 122 117 119 118 115 114 115 130 133 137 131 136 146 180 116 46 42 67 97 106 110 109 107 103 99 95 89
136 127 135 129 128 131 139 137 146 153 153 147 137 140 136 130 136 130 126 129 142 114 108 108 103 115 112 116 155 188 156 37 37 76 99 105 108 107 106 103 98 92 86
144 135 138 142 148 133 137 147 158 154 151 148 139 135 131 127 137 140 119 121 119 114 135 121 109 98 79 113 103 104 128 52 48 86 100 106 105 102 101 98 95 90 83
138 134 142 152 164 169 142 132 127 133 134 147 150 151 142 138 143 114 119 113 110 121 137 150 118 77 108 81 50 84 61 93 77 87 96 100 99 97 97 96 91 83 73
146 148 155 160 171 164 151 135 135 128 133 143 146 142 146 145 142 139 123 116 142 136 137 154 163 204 150 143 130 92 207 102 109 92 88 82 88 96 97 90 81 72 61
149 160 162 159 148 156 156 141 143 132 129 134 145 151 141 149 141 151 150 131 127 108 95 175 137 135 135 168 155 131 97 172 127 115 109 91 74 83 91 77 63 54 44
156 167 169 177 157 148 150 154 148 140 136 135 138 152 164 161 172 155 164 160 144 132 122 94 74 148 174 126 166 134 109 111 119 125 111 104 94 90 62 8 18 14 13
156 150 171 185 178 166 164 158 159 153 143 132 112 167 184 188 183 170 174 189 195 212 159 110 88 95 151 183 188 190 182 105 47 86 103 91 95 71 36 11 3 357 344
155 154 154 156 172 173 169 164 164 169 163 156 152 160 177 187 172 165 167 179 192 185 165 107 100 118 128 104 196 188 218 218 228 231 235 357 357 349 344 335 340 352 354
167 167 164 173 178 185 175 171 177 172 174 171 167 172 190 184 189 162 168 181 192 175 160 120 94 126 149 93 155 174 194 225 235 273 272 279 268 278 286 285 288 284 309
175 176 167 179 171 178 179 180 175 176 171 177 175 169 174 194 200 172 168 199 192 184 155 123 98 121 126 133 96 137 240 236 253 259 263 259 245 259 293 297 286 284 287
180 173 176 178 182 186 185 189 192 191 188 175 173 177 179 198 210 196 184 187 177 184 145 154 100 84 143 159 219 272 150 57 101 157 195 202 266 270 300 322 340 341 282
180 180 183 192 196 195 192 199 204 210 187 181 186 177 185 182 193 215 202 185 184 171 170 175 108 60 91 95 148 334 228 8 82 43 302 222 264 334 313 305 335 20 339
184 189 190 194 203 202 195 195 200 210 206 199 192 199 193 197 187 211 207 186 193 187 187 200 184 112 55 144 87 63 37 234 172 339 11 342 234 14 8 317 315 338 344